Updated11/12/2019 00:50 
 

GeoURL
free counters
Scottish Weather Network UK Weather Network Cumulus Top Weather Sites

Peebles Weather - YR.no Forecast

Raw Data, Raw Data Expanded

Ignore low humidity and Dew Point values. Something wrong with the sensor.
Daytime temperatures are in direct sunlight so may be higher than official air temperature values.
As with any other website, we log your IP address and browser type in the server logs for diagnostic reasons. Cookies are used to record visit time and gauges preferences. No personal information is stored or processed.

All times are in local time (GMT, or BST in summer) unless specified.

2019/12/11 00:20 EGPH 110020Z 24020KT 9999 -RA SCT018 BKN032 04/03 Q0994
2.9°C 1.2 mm 0.6 mm 23.7 mm 11.7 mph 15.9 mph 990.4 hPa 10% X-Ray Solar Flare Level
Planetary K-Index
Planetary K-Index History
Station Warn Rain Snow Flood Wind Ltng Heat Cold Glob Moon Temp Rain 1h Rain Wed Rain 24h Wind 10m Gust Pressure Hum Proton Levels

2.108 m Waxing Gibbous Uncomfortably Cold F3-S F: A: Kp:0 SSN:0
Free Weather Widget
YoWindow.com yr.no
XHTML 1.1 | CSS